Regional Weather Roundup
Issued by NWS

Home | Current Version | Previous Version | Text Only | Print | Product List | Glossary On
Versions: 1 2 3 4 5 6 7 8 9 10 11 12 13 14 15 16 17 18 19 20 21 22 23 24 25 26 27 28 29 30 31 32 33 34 35 36 37 38 39 40 41 42 43 44 45 46 47 48 49 50
000
ASUS46 KLOX 072013
RWRCA

SOUTHERN CALIFORNIA WEATHER ROUNDUP
NATIONAL WEATHER SERVICE OXNARD CALIFORNIA
100 PM PDT TUE JUL 07 2015

NOTE: "FAIR" INDICATES FEW OR NO CLOUDS BELOW 12,000 FEET WITH NO
SIGNIFICANT WEATHER AND/OR OBSTRUCTIONS TO VISIBILITY.

  -  STATIONS PRECEEDED BY AN ASTERISK (*) ARE NOT NWS OR FAA
     STATIONS AND ARE NOT SUBJECT TO NWS AND FAA QUALITY CONTROL.

CAZ041-042-087-072100-
LA AND ORANGE COUNTY COASTAL AREAS


CITY           SKY/WX    TMP DP  RH WIND       PRES   REMARKS
L.A. DOWNTOWN  SUNNY     75  60  59 CALM      29.95F
L.A. AIRPORT   PTSUNNY   70  62  76 W14       29.98F
LONG BEACH     PTSUNNY   73  60  63 SW7       29.97F

CITY           SKY/WX    TMP DP  RH WIND       PRES   REMARKS
AVALON           N/A     72 N/A N/A MISG        N/A
FULLERTON      CLOUDY    72  61  68 SW3       29.96F
*GETTY CENTER    N/A     70  59  68 SW9         N/A
HAWTHORNE      CLOUDY    71  60  68 W10       29.97F
*LOS ALAMITOS  CLOUDY    71  62  72 S9        29.97F
*REDONDO BEACH   N/A     73  62  67 W5        29.98S
SANTA ANA      CLOUDY    69  61  75 W6        29.97F
STA MONICA APT CLOUDY    66  61  84 VRB7      29.97F
TORRANCE       MOSUNNY   75  63  64 W12       29.97F
*UCLA            N/A     70  59  68 W5        29.93F

$$

CAZ547-548-048-072100-
LA COUNTY VALLEYS AND INLAND EMPIRE


CITY           SKY/WX    TMP DP  RH WIND       PRES   REMARKS
BURBANK        SUNNY     75  59  57 VRB3      29.95F
VAN NUYS       SUNNY     78  59  51 CALM      29.95F

CITY           SKY/WX    TMP DP  RH WIND       PRES   REMARKS
CORONA AIRPORT CLEAR     79  60  51 VRB7      29.94F
CHINO          SUNNY     79  61  53 NW7       29.95F
MARCH AFB      MOSUNNY   80  56  43 VRB5      29.96F
*NORTHRIDGE      N/A     77  55  47 SE3G9       N/A
ONTARIO        SUNNY     77  58  51 VRB6      29.95F HAZE
*PASADENA        N/A     77  63  61 E6          N/A
POMONA         SUNNY     75  59  57 W8        29.99F
RIVERSIDE      SUNNY     77  59  53 VRB3      29.95F
SAN BERNARDINO MOSUNNY   77  54  44 SW7       29.96F HAZE
*SAN GABRIEL     N/A     73  62  67 S6        30.02F
*WHITEMAN AP   SUNNY     75  59  57 SE8       29.99F

$$

CAZ054-055-072100-
LA AND SAN BERNARDINO COUNTY MOUNTAINS


CITY           SKY/WX    TMP DP  RH WIND       PRES   REMARKS
*BIG BEAR AIRP PTCLDY    73  37  27 SW8       30.23S
SANDBERG       SUNNY     83  46  27 SE12G20   30.10F

$$

CAZ028-029-059-060-099-072100-
ANTELOPE VALLEY AND SURROUNDING AREAS


CITY           SKY/WX    TMP DP  RH WIND       PRES   REMARKS
LANCASTER      SUNNY     94  26   9 SW14G20   29.94F
PALMDALE       SUNNY     93  35  13 W14       29.95F

CITY           SKY/WX    TMP DP  RH WIND       PRES   REMARKS
29 PALMS       MOSUNNY   98  50  19 VRB5G20   29.94F HX  95
BARSTOW/DAGGET SUNNY     98  40  13 VRB7      29.88F HX  93
BISHOP         MOSUNNY   90  37  15 S17G28    29.96F
CHINA LAKE     MOSUNNY   99  33  10 SE13G23   29.90F HX  93
EDWARDS AFB    MOSUNNY   93  31  11 VRB6      29.91F
MOJAVE         FAIR      91  27   9 S10G17    29.96F
NEEDLES        SUNNY    107  48  14 VRB7G18   29.78F HX 103
VICTORVILLE    MOSUNNY   97  23   7 S14G23    29.96F HX  90

$$

CAZ039-040-072100-
VENTURA AND SANTA BARBARA COUNTY COAST


CITY           SKY/WX    TMP DP  RH WIND       PRES   REMARKS
CAMARILLO      CLOUDY    71  59  65 S8        29.97F
OXNARD AIRPORT MOSUNNY   69  58  67 SW8       29.97F
*POINT MUGU    MOSUNNY   72  60  66 SW9       29.98F
SBA APT/GOLETA MOSUNNY   70  59  68 S10       29.97F
*SANTA BARBARA   N/A     73  59  59 NW3       30.05S
*VENTURA         N/A     74  60  60 SW5       29.59S

$$

CAZ044-045-072100-
VENTURA COUNTY VALLEYS


CITY           SKY/WX    TMP DP  RH WIND       PRES   REMARKS
*SIMI VALLEY     N/A     74  62  66 SW3       29.91F
*OJAI            N/A     81  62  52 W7        29.88F
*FILLMORE        N/A     78  63  61 SW6       29.85F

$$

CAZ053-072100-
VENTURA COUNTY MOUNTAINS


CITY           SKY/WX    TMP DP  RH WIND       PRES   REMARKS

$$

CAZ034-035-036-072100-
CENTRAL COAST AND SANTA YNEZ VALLEY


CITY           SKY/WX    TMP DP  RH WIND       PRES   REMARKS
SAN LUIS OBISP SUNNY     74  57  55 NW20      29.98F
SANTA MARIA    MOSUNNY   76  59  55 NW18      29.99F

CITY           SKY/WX    TMP DP  RH WIND       PRES   REMARKS
*CAL POLY SLO    N/A     73  63  68 W7          N/A
*LOMPOC        MOSUNNY   73  57  56 W10       30.01F
*PISMO BEACH     N/A     68  61  77 W10       29.97F
*SANTA YNEZ    FAIR      77  55  47 W18       29.97F

$$

CAZ037-038-051-072100-
SAN LUIS OBISPO COUNTY INTERIOR AND CUYAMA VALLEY


CITY           SKY/WX    TMP DP  RH WIND       PRES   REMARKS
*CUYAMA          N/A     82  48  30 NE6       29.86F
PASO ROBLES    SUNNY     86  50  28 VRB6      29.95F

$$

CAZ032-033-061-072100-
SOUTHERN DESERTS


CITY           SKY/WX    TMP DP  RH WIND       PRES   REMARKS
BLYTHE         SUNNY    106  43  12 S12G22    29.77F HX 101
IMPERIAL       SUNNY    102  52  18 SW5       29.74F HX  99
PALM SPRINGS   MOSUNNY  104  52  17 N9        29.80F HX 101
THERMAL        SUNNY    102  55  20 VRB5      29.73F HX 100

$$

ELSEWHERE ACROSS THE WESTERN UNITED STATES AND MEXICO


CITY           SKY/WX    TMP DP  RH WIND       PRES   REMARKS
DENVER, CO     PTSUNNY   74  54  49 SE21      30.12F HAZE
GRAND CANYON,  PTSUNNY   76  44  32 NW12G20   30.23F
HONOLULU, HI   MOSUNNY   86  66  51 NE14G21   30.01S
KAHULUI, MAUI  RAIN      79  72  78 NW9       30.02F
LAKE TAHOE, CA CLOUDY    64  49  57 NE7       30.17F
LAS VEGAS, NV  MOSUNNY   97  50  20 E5        29.87F HX  94
MAMMOTH LAKES, FAIR      72  39  30 CALM      30.22F
MEXICO CITY, M CLOUDY    72  45  37 NE7       30.30F
PHOENIX, AZ    MOSUNNY  104  56  20 SW7       29.82F HX 103
PORTLAND, OR   MOSUNNY   74  56  53 CALM      29.97F
RENO, NV       MOSUNNY   85  45  24 VRB3      30.03F
SALT LAKE CITY CLOUDY    84  52  33 SW6       29.99F
SAN DIEGO, CA  CLOUDY    69  59  70 VRB5      29.98F
SAN FRANCISCO, PTSUNNY   72  57  59 W14       30.01F
SAN JOSE, CA   MOSUNNY   76  59  55 NW8G16    29.99F
SEATTLE, WA    PTSUNNY   72  54  53 S5        30.02F
TIJUANA, MEX   MOSUNNY   70  57  64 SW3       29.98F

$$

STATION/POSITION TIME  TEMP    WIND        PRES    VSBY  WAVE
                       AIR SEA DIR/SP/G                  HT/PER
                 (UTC) (F)     (DEG/KT/KT) (MB)    (MI)  (FT/S)
POINT ARGUELLO B NOT AVBL
WEST SANTA BARBA 1950   60 60  310/ 14/ 16 1015.2F         4/14
POINT CONCEPTION NOT AVBL
EAST SANTA BARBA 1900   64 64   90/  2/  4 1016.0F
SANTA MONICA BAY 1950   64 67  280/  4/  4 1015.3F         3/14


USA.gov is the U.S. government's official web portal to all federal, state and local government web resources and services.